Year,Month,Day,Hour,Minute,Value (Times are PST for temperature in C)
2014,10,22,00,00,14.60
2014,10,22,00,01,14.60
2014,10,22,00,02,14.60
2014,10,22,00,03,14.60
2014,10,22,00,04,14.60
2014,10,22,00,05,14.60
2014,10,22,00,06,14.60
2014,10,22,00,07,14.60
2014,10,22,00,08,14.60
2014,10,22,00,09,14.60
2014,10,22,00,10,14.60
2014,10,22,00,11,14.60
2014,10,22,00,12,14.50
2014,10,22,00,13,14.50
2014,10,22,00,14,14.40
2014,10,22,00,15,14.40
2014,10,22,00,16,14.40
2014,10,22,00,17,14.30
2014,10,22,00,18,14.30
2014,10,22,00,19,14.40
2014,10,22,00,20,14.40
2014,10,22,00,21,14.40
2014,10,22,00,22,14.40
2014,10,22,00,23,14.40
2014,10,22,00,24,14.40
2014,10,22,00,25,14.40
2014,10,22,00,26,14.40
2014,10,22,00,27,14.40
2014,10,22,00,28,14.50
2014,10,22,00,29,14.50
2014,10,22,00,30,14.50
2014,10,22,00,31,14.50
2014,10,22,00,32,14.60
2014,10,22,00,33,14.60
2014,10,22,00,34,14.60
2014,10,22,00,35,14.60
2014,10,22,00,36,14.60
2014,10,22,00,37,14.60
2014,10,22,00,38,14.60
2014,10,22,00,39,14.60
2014,10,22,00,40,14.60
2014,10,22,00,41,14.60
2014,10,22,00,42,14.60
2014,10,22,00,43,14.60
2014,10,22,00,44,14.60
2014,10,22,00,45,14.60
2014,10,22,00,46,14.60
2014,10,22,00,47,14.60
2014,10,22,00,48,14.60
2014,10,22,00,49,14.60
2014,10,22,00,50,14.60
2014,10,22,00,51,14.60
2014,10,22,00,52,14.60
2014,10,22,00,53,14.60
2014,10,22,00,54,14.60
2014,10,22,00,55,14.60
2014,10,22,00,56,14.50
2014,10,22,00,57,14.50
2014,10,22,00,58,14.50
2014,10,22,00,59,14.50
2014,10,22,01,00,14.50
2014,10,22,01,01,14.50
2014,10,22,01,02,14.60
2014,10,22,01,03,14.60
2014,10,22,01,04,14.50
2014,10,22,01,05,14.60
2014,10,22,01,06,14.50
2014,10,22,01,07,14.50
2014,10,22,01,08,14.50
2014,10,22,01,09,14.50
2014,10,22,01,10,14.40
2014,10,22,01,11,14.40
2014,10,22,01,12,14.40
2014,10,22,01,13,14.40
2014,10,22,01,14,14.40
2014,10,22,01,15,14.30
2014,10,22,01,16,14.30
2014,10,22,01,17,14.30
2014,10,22,01,18,14.20
2014,10,22,01,19,14.20
2014,10,22,01,20,14.20
2014,10,22,01,21,14.20
2014,10,22,01,22,14.20
2014,10,22,01,23,14.20
2014,10,22,01,24,14.20
2014,10,22,01,25,14.20
2014,10,22,01,26,14.20
2014,10,22,01,27,14.20
2014,10,22,01,28,14.30
2014,10,22,01,29,14.30
2014,10,22,01,30,14.30
2014,10,22,01,31,14.30
2014,10,22,01,32,14.30
2014,10,22,01,33,14.30
2014,10,22,01,34,14.20
2014,10,22,01,35,14.20
2014,10,22,01,36,14.10
2014,10,22,01,37,14.00
2014,10,22,01,38,13.90
2014,10,22,01,39,13.80
2014,10,22,01,40,13.70
2014,10,22,01,41,13.70
2014,10,22,01,42,13.60
2014,10,22,01,43,13.50
2014,10,22,01,44,13.50
2014,10,22,01,45,13.40
2014,10,22,01,46,13.40
2014,10,22,01,47,13.40
2014,10,22,01,48,13.30
2014,10,22,01,49,13.30
2014,10,22,01,50,13.30
2014,10,22,01,51,13.30
2014,10,22,01,52,13.20
2014,10,22,01,53,13.20
2014,10,22,01,54,13.20
2014,10,22,01,55,13.10
2014,10,22,01,56,13.10
2014,10,22,01,57,13.10
2014,10,22,01,58,13.10
2014,10,22,01,59,13.10
2014,10,22,02,00,13.00
2014,10,22,02,01,13.00
2014,10,22,02,02,13.00
2014,10,22,02,03,12.90
2014,10,22,02,04,12.90
2014,10,22,02,05,12.90
2014,10,22,02,06,12.90
2014,10,22,02,07,12.80
2014,10,22,02,08,12.80
2014,10,22,02,09,12.80
2014,10,22,02,10,12.80
2014,10,22,02,11,12.70
2014,10,22,02,12,12.70
2014,10,22,02,13,12.70
2014,10,22,02,14,12.60
2014,10,22,02,15,12.60
2014,10,22,02,16,12.60
2014,10,22,02,17,12.50
2014,10,22,02,18,12.50
2014,10,22,02,19,12.40
2014,10,22,02,20,12.40
2014,10,22,02,21,12.40
2014,10,22,02,22,12.40
2014,10,22,02,23,12.30
2014,10,22,02,24,12.30
2014,10,22,02,25,12.30
2014,10,22,02,26,12.30
2014,10,22,02,27,12.30
2014,10,22,02,28,12.30
2014,10,22,02,29,12.30
2014,10,22,02,30,12.30
2014,10,22,02,31,12.30
2014,10,22,02,32,12.30
2014,10,22,02,33,12.30
2014,10,22,02,34,12.30
2014,10,22,02,35,12.30
2014,10,22,02,36,12.30
2014,10,22,02,37,12.30
2014,10,22,02,38,12.20
2014,10,22,02,39,12.20
2014,10,22,02,40,12.20
2014,10,22,02,41,12.20
2014,10,22,02,42,12.20
2014,10,22,02,43,12.20
2014,10,22,02,44,12.20
2014,10,22,02,45,12.20
2014,10,22,02,46,12.20
2014,10,22,02,47,12.20
2014,10,22,02,48,12.10
2014,10,22,02,49,12.10
2014,10,22,02,50,12.10
2014,10,22,02,51,12.10
2014,10,22,02,52,12.10
2014,10,22,02,53,12.10
2014,10,22,02,54,12.10
2014,10,22,02,55,12.00
2014,10,22,02,56,12.00
2014,10,22,02,57,12.00
2014,10,22,02,58,12.00
2014,10,22,02,59,11.90
2014,10,22,03,00,11.90
2014,10,22,03,01,11.90
2014,10,22,03,02,11.90
2014,10,22,03,03,11.90
2014,10,22,03,04,11.90
2014,10,22,03,05,11.90
2014,10,22,03,06,11.90
2014,10,22,03,07,11.90
2014,10,22,03,08,11.90
2014,10,22,03,09,11.90
2014,10,22,03,10,11.90
2014,10,22,03,11,11.90
2014,10,22,03,12,11.90
2014,10,22,03,13,11.90
2014,10,22,03,14,11.90
2014,10,22,03,15,11.90
2014,10,22,03,16,11.90
2014,10,22,03,17,11.90
2014,10,22,03,18,11.90
2014,10,22,03,19,11.90
2014,10,22,03,20,11.90
2014,10,22,03,21,11.90
2014,10,22,03,22,11.90
2014,10,22,03,23,11.90
2014,10,22,03,24,11.90
2014,10,22,03,25,11.90
2014,10,22,03,26,11.90
2014,10,22,03,27,11.90
2014,10,22,03,28,11.90
2014,10,22,03,29,11.90
2014,10,22,03,30,11.80
2014,10,22,03,31,11.80
2014,10,22,03,32,11.80
2014,10,22,03,33,11.80
2014,10,22,03,34,11.80
2014,10,22,03,35,11.80
2014,10,22,03,36,11.80
2014,10,22,03,37,11.80
2014,10,22,03,38,11.80
2014,10,22,03,39,11.80
2014,10,22,03,40,11.80
2014,10,22,03,41,11.90
2014,10,22,03,42,11.90
2014,10,22,03,43,11.90
2014,10,22,03,44,11.90
2014,10,22,03,45,11.90
2014,10,22,03,46,11.90
2014,10,22,03,47,11.90
2014,10,22,03,48,11.90
2014,10,22,03,49,11.90
2014,10,22,03,50,11.90
2014,10,22,03,51,11.90
2014,10,22,03,52,11.90
2014,10,22,03,53,11.90
2014,10,22,03,54,12.00
2014,10,22,03,55,12.00
2014,10,22,03,56,12.00
2014,10,22,03,57,12.00
2014,10,22,03,58,12.00
2014,10,22,03,59,12.00
2014,10,22,04,00,12.00
2014,10,22,04,01,12.00
2014,10,22,04,02,11.90
2014,10,22,04,03,11.90
2014,10,22,04,04,11.90
2014,10,22,04,05,11.90
2014,10,22,04,06,11.90
2014,10,22,04,07,11.90
2014,10,22,04,08,11.90
2014,10,22,04,09,11.90
2014,10,22,04,10,11.90
2014,10,22,04,11,11.90
2014,10,22,04,12,11.80
2014,10,22,04,13,11.80
2014,10,22,04,14,11.80
2014,10,22,04,15,11.80
2014,10,22,04,16,11.80
2014,10,22,04,17,11.80
2014,10,22,04,18,11.80
2014,10,22,04,19,11.80
2014,10,22,04,20,11.80
2014,10,22,04,21,11.80
2014,10,22,04,22,11.80
2014,10,22,04,23,11.80
2014,10,22,04,24,11.80
2014,10,22,04,25,11.80
2014,10,22,04,26,11.80
2014,10,22,04,27,11.80
2014,10,22,04,28,11.80
2014,10,22,04,29,11.80
2014,10,22,04,30,11.80
2014,10,22,04,31,11.80
2014,10,22,04,32,11.70
2014,10,22,04,33,11.70
2014,10,22,04,34,11.70
2014,10,22,04,35,11.70
2014,10,22,04,36,11.70
2014,10,22,04,37,11.80
2014,10,22,04,38,11.80
2014,10,22,04,39,11.80
2014,10,22,04,40,11.80
2014,10,22,04,41,11.80
2014,10,22,04,42,11.80
2014,10,22,04,43,11.80
2014,10,22,04,44,11.80
2014,10,22,04,45,11.80
2014,10,22,04,46,11.80
2014,10,22,04,47,11.80
2014,10,22,04,48,11.80
2014,10,22,04,49,11.80
2014,10,22,04,50,11.80
2014,10,22,04,51,11.70
2014,10,22,04,52,11.70
2014,10,22,04,53,11.70
2014,10,22,04,54,11.70
2014,10,22,04,55,11.70
2014,10,22,04,56,11.70
2014,10,22,04,57,11.70
2014,10,22,04,58,11.70
2014,10,22,04,59,11.70
2014,10,22,05,00,11.70
2014,10,22,05,01,11.80
2014,10,22,05,02,11.80
2014,10,22,05,03,11.80
2014,10,22,05,04,11.80
2014,10,22,05,05,11.80
2014,10,22,05,06,11.80
2014,10,22,05,07,11.80
2014,10,22,05,08,11.80
2014,10,22,05,09,11.80
2014,10,22,05,10,11.80
2014,10,22,05,11,11.80
2014,10,22,05,12,11.80
2014,10,22,05,13,11.80
2014,10,22,05,14,11.80
2014,10,22,05,15,11.80
2014,10,22,05,16,11.80
2014,10,22,05,17,11.90
2014,10,22,05,18,11.90
2014,10,22,05,19,11.90
2014,10,22,05,20,11.90
2014,10,22,05,21,11.90
2014,10,22,05,22,11.90
2014,10,22,05,23,11.90
2014,10,22,05,24,11.90
2014,10,22,05,25,11.90
2014,10,22,05,26,11.90
2014,10,22,05,27,11.90
2014,10,22,05,28,11.90
2014,10,22,05,29,12.00
2014,10,22,05,30,12.00
2014,10,22,05,31,12.00
2014,10,22,05,32,12.00
2014,10,22,05,33,12.00
2014,10,22,05,34,12.00
2014,10,22,05,35,12.00
2014,10,22,05,36,12.00
2014,10,22,05,37,12.00
2014,10,22,05,38,12.00
2014,10,22,05,39,12.10
2014,10,22,05,40,12.10
2014,10,22,05,41,12.10
2014,10,22,05,42,12.00
2014,10,22,05,43,12.00
2014,10,22,05,44,12.00
2014,10,22,05,45,12.00
2014,10,22,05,46,12.10
2014,10,22,05,47,12.00
2014,10,22,05,48,12.00
2014,10,22,05,49,12.00
2014,10,22,05,50,12.10
2014,10,22,05,51,12.10
2014,10,22,05,52,12.10
2014,10,22,05,53,12.10
2014,10,22,05,54,12.10
2014,10,22,05,55,12.00
2014,10,22,05,56,12.00
2014,10,22,05,57,12.00
2014,10,22,05,58,12.00
2014,10,22,05,59,12.00
2014,10,22,06,00,12.00
2014,10,22,06,01,12.00
2014,10,22,06,02,12.00
2014,10,22,06,03,12.00
2014,10,22,06,04,12.00
2014,10,22,06,05,12.00
2014,10,22,06,06,12.00
2014,10,22,06,07,12.00
2014,10,22,06,08,12.00
2014,10,22,06,09,12.00
2014,10,22,06,10,12.00
2014,10,22,06,11,12.00
2014,10,22,06,12,12.10
2014,10,22,06,13,12.10
2014,10,22,06,14,12.10
2014,10,22,06,15,12.10
2014,10,22,06,16,12.10
2014,10,22,06,17,12.10
2014,10,22,06,18,12.10
2014,10,22,06,19,12.10
2014,10,22,06,20,12.10
2014,10,22,06,21,12.10
2014,10,22,06,22,12.10
2014,10,22,06,23,12.10
2014,10,22,06,24,12.10
2014,10,22,06,25,12.10
2014,10,22,06,26,12.10
2014,10,22,06,27,12.10
2014,10,22,06,28,12.10
2014,10,22,06,29,12.10
2014,10,22,06,30,12.10
2014,10,22,06,31,12.10
2014,10,22,06,32,12.10
2014,10,22,06,33,12.10
2014,10,22,06,34,12.10
2014,10,22,06,35,12.00
2014,10,22,06,36,12.00
2014,10,22,06,37,12.00
2014,10,22,06,38,12.00
2014,10,22,06,39,12.00
2014,10,22,06,40,12.00
2014,10,22,06,41,12.00
2014,10,22,06,42,12.00
2014,10,22,06,43,11.90
2014,10,22,06,44,11.90
2014,10,22,06,45,11.90
2014,10,22,06,46,11.90
2014,10,22,06,47,11.90
2014,10,22,06,48,11.90
2014,10,22,06,49,11.90
2014,10,22,06,50,11.90
2014,10,22,06,51,11.90
2014,10,22,06,52,11.90
2014,10,22,06,53,11.80
2014,10,22,06,54,11.80
2014,10,22,06,55,11.80
2014,10,22,06,56,11.80
2014,10,22,06,57,11.80
2014,10,22,06,58,11.80
2014,10,22,06,59,11.80
2014,10,22,07,00,11.80
2014,10,22,07,01,11.80
2014,10,22,07,02,11.80
2014,10,22,07,03,11.80
2014,10,22,07,04,11.80
2014,10,22,07,05,11.80
2014,10,22,07,06,11.80
2014,10,22,07,07,11.80
2014,10,22,07,08,11.80
2014,10,22,07,09,11.80
2014,10,22,07,10,11.80
2014,10,22,07,11,11.80
2014,10,22,07,12,11.80
2014,10,22,07,13,11.80
2014,10,22,07,14,11.80
2014,10,22,07,15,11.90
2014,10,22,07,16,11.90
2014,10,22,07,17,11.90
2014,10,22,07,18,11.90
2014,10,22,07,19,11.90
2014,10,22,07,20,11.90
2014,10,22,07,21,11.90
2014,10,22,07,22,11.90
2014,10,22,07,23,11.90
2014,10,22,07,24,11.90
2014,10,22,07,25,11.90
2014,10,22,07,26,11.90
2014,10,22,07,27,11.90
2014,10,22,07,28,11.90
2014,10,22,07,29,11.90
2014,10,22,07,30,11.90
2014,10,22,07,31,11.80
2014,10,22,07,32,11.80
2014,10,22,07,33,11.90
2014,10,22,07,34,11.80
2014,10,22,07,35,11.80
2014,10,22,07,36,11.80
2014,10,22,07,37,11.80
2014,10,22,07,38,11.80
2014,10,22,07,39,11.80
2014,10,22,07,40,11.80
2014,10,22,07,41,11.80
2014,10,22,07,42,11.80
2014,10,22,07,43,11.80
2014,10,22,07,44,11.90
2014,10,22,07,45,11.80
2014,10,22,07,46,11.90
2014,10,22,07,47,11.90
2014,10,22,07,48,11.90
2014,10,22,07,49,11.80
2014,10,22,07,50,11.80
2014,10,22,07,51,11.80
2014,10,22,07,52,11.80
2014,10,22,07,53,11.80
2014,10,22,07,54,11.80
2014,10,22,07,55,11.80
2014,10,22,07,56,11.80
2014,10,22,07,57,11.80
2014,10,22,07,58,11.80
2014,10,22,07,59,11.80
2014,10,22,08,00,11.80
2014,10,22,08,01,11.80
2014,10,22,08,02,11.80
2014,10,22,08,03,11.80
2014,10,22,08,04,11.80
2014,10,22,08,05,11.80
2014,10,22,08,06,11.70
2014,10,22,08,07,11.70
2014,10,22,08,08,11.70
2014,10,22,08,09,11.70
2014,10,22,08,10,11.70
2014,10,22,08,11,11.70
2014,10,22,08,12,11.70
2014,10,22,08,13,11.70
2014,10,22,08,14,11.70
2014,10,22,08,15,11.80
2014,10,22,08,16,11.70
2014,10,22,08,17,11.70
2014,10,22,08,18,11.70
2014,10,22,08,19,11.70
2014,10,22,08,20,11.70
2014,10,22,08,21,11.70
2014,10,22,08,22,11.70
2014,10,22,08,23,11.70
2014,10,22,08,24,11.70
2014,10,22,08,25,11.70
2014,10,22,08,26,11.70
2014,10,22,08,27,11.70
2014,10,22,08,28,11.70
2014,10,22,08,29,11.70
2014,10,22,08,30,11.60
2014,10,22,08,31,11.60
2014,10,22,08,32,11.60
2014,10,22,08,33,11.60
2014,10,22,08,34,11.60
2014,10,22,08,35,11.60
2014,10,22,08,36,11.60
2014,10,22,08,37,11.60
2014,10,22,08,38,11.60
2014,10,22,08,39,11.60
2014,10,22,08,40,11.60
2014,10,22,08,41,11.50
2014,10,22,08,42,11.60
2014,10,22,08,43,11.60
2014,10,22,08,44,11.60
2014,10,22,08,45,11.60
2014,10,22,08,46,11.60
2014,10,22,08,47,11.60
2014,10,22,08,48,11.50
2014,10,22,08,49,11.50
2014,10,22,08,50,11.50
2014,10,22,08,51,11.50
2014,10,22,08,52,11.50
2014,10,22,08,53,11.50
2014,10,22,08,54,11.50
2014,10,22,08,55,11.50
2014,10,22,08,56,11.50
2014,10,22,08,57,11.50
2014,10,22,08,58,11.50
2014,10,22,08,59,11.50
2014,10,22,09,00,11.50
2014,10,22,09,01,11.50
2014,10,22,09,02,11.50
2014,10,22,09,03,11.50
2014,10,22,09,04,11.50
2014,10,22,09,05,11.50
2014,10,22,09,06,11.50
2014,10,22,09,07,11.50
2014,10,22,09,08,11.50
2014,10,22,09,09,11.50
2014,10,22,09,10,11.50
2014,10,22,09,11,11.50
2014,10,22,09,12,11.60
2014,10,22,09,13,11.60
2014,10,22,09,14,11.60
2014,10,22,09,15,11.60
2014,10,22,09,16,11.60
2014,10,22,09,17,11.60
2014,10,22,09,18,11.60
2014,10,22,09,19,11.60
2014,10,22,09,20,11.60
2014,10,22,09,21,11.60
2014,10,22,09,22,11.50
2014,10,22,09,23,11.50
2014,10,22,09,24,11.50
2014,10,22,09,25,11.50
2014,10,22,09,26,11.60
2014,10,22,09,27,11.60
2014,10,22,09,28,11.60
2014,10,22,09,29,11.60
2014,10,22,09,30,11.60
2014,10,22,09,31,11.60
2014,10,22,09,32,11.60
2014,10,22,09,33,11.60
2014,10,22,09,34,11.60
2014,10,22,09,35,11.60
2014,10,22,09,36,11.60
2014,10,22,09,37,11.60
2014,10,22,09,38,11.60
2014,10,22,09,39,11.60
2014,10,22,09,40,11.60
2014,10,22,09,41,11.60
2014,10,22,09,42,11.60
2014,10,22,09,43,11.60
2014,10,22,09,44,11.60
2014,10,22,09,45,11.70
2014,10,22,09,46,11.80
2014,10,22,09,47,11.80
2014,10,22,09,48,11.90
2014,10,22,09,49,11.90
2014,10,22,09,50,12.00
2014,10,22,09,51,12.00
2014,10,22,09,52,12.00
2014,10,22,09,53,12.00
2014,10,22,09,54,11.90
2014,10,22,09,55,11.90
2014,10,22,09,56,11.90
2014,10,22,09,57,11.90
2014,10,22,09,58,11.90
2014,10,22,09,59,11.90
2014,10,22,10,00,11.90
2014,10,22,10,01,11.90
2014,10,22,10,02,11.90
2014,10,22,10,03,11.90
2014,10,22,10,04,11.90
2014,10,22,10,05,11.90
2014,10,22,10,06,11.90
2014,10,22,10,07,11.90
2014,10,22,10,08,11.90
2014,10,22,10,09,11.90
2014,10,22,10,10,11.90
2014,10,22,10,11,11.90
2014,10,22,10,12,11.90
2014,10,22,10,13,11.90
2014,10,22,10,14,11.90
2014,10,22,10,15,11.90
2014,10,22,10,16,11.90
2014,10,22,10,17,11.80
2014,10,22,10,18,11.80
2014,10,22,10,19,11.80
2014,10,22,10,20,11.80
2014,10,22,10,21,11.80
2014,10,22,10,22,11.80
2014,10,22,10,23,11.80
2014,10,22,10,24,11.80
2014,10,22,10,25,11.80
2014,10,22,10,26,11.80
2014,10,22,10,27,11.80
2014,10,22,10,28,11.80
2014,10,22,10,29,11.80
2014,10,22,10,30,11.90
2014,10,22,10,31,11.90
2014,10,22,10,32,11.90
2014,10,22,10,33,11.90
2014,10,22,10,34,11.90
2014,10,22,10,35,12.00
2014,10,22,10,36,12.00
2014,10,22,10,37,12.00
2014,10,22,10,38,12.00
2014,10,22,10,39,12.10
2014,10,22,10,40,12.10
2014,10,22,10,41,12.10
2014,10,22,10,42,12.10
2014,10,22,10,43,12.10
2014,10,22,10,44,12.10
2014,10,22,10,45,12.10
2014,10,22,10,46,12.20
2014,10,22,10,47,12.20
2014,10,22,10,48,12.20
2014,10,22,10,49,12.20
2014,10,22,10,50,12.20
2014,10,22,10,51,12.20
2014,10,22,10,52,12.20
2014,10,22,10,53,12.20
2014,10,22,10,54,12.20
2014,10,22,10,55,12.30
2014,10,22,10,56,12.30
2014,10,22,10,57,12.30
2014,10,22,10,58,12.30
2014,10,22,10,59,12.30
2014,10,22,11,00,12.30
2014,10,22,11,01,12.30
2014,10,22,11,02,12.40
2014,10,22,11,03,12.40
2014,10,22,11,04,12.40
2014,10,22,11,05,12.40
2014,10,22,11,06,12.40
2014,10,22,11,07,12.40
2014,10,22,11,08,12.40
2014,10,22,11,09,12.50
2014,10,22,11,10,12.50
2014,10,22,11,11,12.50
2014,10,22,11,12,12.50
2014,10,22,11,13,12.50
2014,10,22,11,14,12.50
2014,10,22,11,15,12.60
2014,10,22,11,16,12.60
2014,10,22,11,17,12.60
2014,10,22,11,18,12.60
2014,10,22,11,19,12.60
2014,10,22,11,20,12.60
2014,10,22,11,21,12.60
2014,10,22,11,22,12.70
2014,10,22,11,23,12.70
2014,10,22,11,24,12.70
2014,10,22,11,25,12.70
2014,10,22,11,26,12.70
2014,10,22,11,27,12.70
2014,10,22,11,28,12.70
2014,10,22,11,29,12.80
2014,10,22,11,30,12.80
2014,10,22,11,31,12.80
2014,10,22,11,32,12.80
2014,10,22,11,33,12.80
2014,10,22,11,34,12.80
2014,10,22,11,35,12.80
2014,10,22,11,36,12.80
2014,10,22,11,37,12.80
2014,10,22,11,38,12.80
2014,10,22,11,39,12.80
2014,10,22,11,40,12.80
2014,10,22,11,41,12.80
2014,10,22,11,42,12.80
2014,10,22,11,43,12.80
2014,10,22,11,44,12.80
2014,10,22,11,45,12.80
2014,10,22,11,46,12.80
2014,10,22,11,47,12.80
2014,10,22,11,48,12.80
2014,10,22,11,49,12.80
2014,10,22,11,50,12.80
2014,10,22,11,51,12.80
2014,10,22,11,52,12.80
2014,10,22,11,53,12.80
2014,10,22,11,54,12.80
2014,10,22,11,55,12.80
2014,10,22,11,56,12.80
2014,10,22,11,57,12.90
2014,10,22,11,58,12.80
2014,10,22,11,59,12.90
2014,10,22,12,00,12.90
2014,10,22,12,01,12.90
2014,10,22,12,02,12.90
2014,10,22,12,03,12.90
2014,10,22,12,04,12.90
2014,10,22,12,05,12.90
2014,10,22,12,06,12.90
2014,10,22,12,07,12.90
2014,10,22,12,08,12.90
2014,10,22,12,09,12.90
2014,10,22,12,10,12.90
2014,10,22,12,11,12.90
2014,10,22,12,12,12.90
2014,10,22,12,13,12.90
2014,10,22,12,14,12.90
2014,10,22,12,15,12.90
2014,10,22,12,16,12.90
2014,10,22,12,17,12.90
2014,10,22,12,18,12.80
2014,10,22,12,19,12.80
2014,10,22,12,20,12.80
2014,10,22,12,21,12.80
2014,10,22,12,22,12.80
2014,10,22,12,23,12.80
2014,10,22,12,24,12.80
2014,10,22,12,25,12.80
2014,10,22,12,26,12.80
2014,10,22,12,27,12.80
2014,10,22,12,28,12.80
2014,10,22,12,29,12.80
2014,10,22,12,30,12.80
2014,10,22,12,31,12.80
2014,10,22,12,32,12.80
2014,10,22,12,33,12.80
2014,10,22,12,34,12.80
2014,10,22,12,35,12.80
2014,10,22,12,36,12.80
2014,10,22,12,37,12.80
2014,10,22,12,38,12.80
2014,10,22,12,39,12.70
2014,10,22,12,40,12.70
2014,10,22,12,41,12.70
2014,10,22,12,42,12.70
2014,10,22,12,43,12.70
2014,10,22,12,44,12.70
2014,10,22,12,45,12.70
2014,10,22,12,46,12.70
2014,10,22,12,47,12.70
2014,10,22,12,48,12.70
2014,10,22,12,49,12.70
2014,10,22,12,50,12.70
2014,10,22,12,51,12.70
2014,10,22,12,52,12.70
2014,10,22,12,53,12.70
2014,10,22,12,54,12.70
2014,10,22,12,55,12.70
2014,10,22,12,56,12.70
2014,10,22,12,57,12.70
2014,10,22,12,58,12.70
2014,10,22,12,59,12.70
2014,10,22,13,00,12.70
2014,10,22,13,01,12.70
2014,10,22,13,02,12.70
2014,10,22,13,03,12.70
2014,10,22,13,04,12.70
2014,10,22,13,05,12.70
2014,10,22,13,06,12.70
2014,10,22,13,07,12.70
2014,10,22,13,08,12.70
2014,10,22,13,09,12.70
2014,10,22,13,10,12.70
2014,10,22,13,11,12.70
2014,10,22,13,12,12.70
2014,10,22,13,13,12.60
2014,10,22,13,14,12.60
2014,10,22,13,15,12.60
2014,10,22,13,16,12.60
2014,10,22,13,17,12.60
2014,10,22,13,18,12.60
2014,10,22,13,19,12.60
2014,10,22,13,20,12.60
2014,10,22,13,21,12.60
2014,10,22,13,22,12.60
2014,10,22,13,23,12.60
2014,10,22,13,24,12.60
2014,10,22,13,25,12.70
2014,10,22,13,26,12.70
2014,10,22,13,27,12.70
2014,10,22,13,28,12.70
2014,10,22,13,29,12.70
2014,10,22,13,30,12.70
2014,10,22,13,31,12.70
2014,10,22,13,32,12.70
2014,10,22,13,33,12.70
2014,10,22,13,34,12.80
2014,10,22,13,35,12.80
2014,10,22,13,36,12.80
2014,10,22,13,37,12.80
2014,10,22,13,38,12.80
2014,10,22,13,39,12.80
2014,10,22,13,40,12.80
2014,10,22,13,41,12.80
2014,10,22,13,42,12.80
2014,10,22,13,43,12.80
2014,10,22,13,44,12.80
2014,10,22,13,45,12.80
2014,10,22,13,46,12.80
2014,10,22,13,47,12.80
2014,10,22,13,48,12.70
2014,10,22,13,49,12.70
2014,10,22,13,50,12.70
2014,10,22,13,51,12.70
2014,10,22,13,52,12.70
2014,10,22,13,53,12.60
2014,10,22,13,54,12.60
2014,10,22,13,55,12.60
2014,10,22,13,56,12.60
2014,10,22,13,57,12.60
2014,10,22,13,58,12.60
2014,10,22,13,59,12.60
2014,10,22,14,00,12.60
2014,10,22,14,01,12.70
2014,10,22,14,02,12.70
2014,10,22,14,03,12.70
2014,10,22,14,04,12.70
2014,10,22,14,05,12.60
2014,10,22,14,06,12.70
2014,10,22,14,07,12.70
2014,10,22,14,08,12.70
2014,10,22,14,09,12.70
2014,10,22,14,10,12.70
2014,10,22,14,11,12.70
2014,10,22,14,12,12.70
2014,10,22,14,13,12.70
2014,10,22,14,14,12.70
2014,10,22,14,15,12.70
2014,10,22,14,16,12.70
2014,10,22,14,17,12.70
2014,10,22,14,18,12.70
2014,10,22,14,19,12.80
2014,10,22,14,20,12.80
2014,10,22,14,21,12.80
2014,10,22,14,22,12.80
2014,10,22,14,23,12.80
2014,10,22,14,24,12.80
2014,10,22,14,25,12.80
2014,10,22,14,26,12.80
2014,10,22,14,27,12.80
2014,10,22,14,28,12.80
2014,10,22,14,29,12.80
2014,10,22,14,30,12.80
2014,10,22,14,31,12.80
2014,10,22,14,32,12.80
2014,10,22,14,33,12.80
2014,10,22,14,34,12.80
2014,10,22,14,35,12.80
2014,10,22,14,36,12.80
2014,10,22,14,37,12.80
2014,10,22,14,38,12.80
2014,10,22,14,39,12.80
2014,10,22,14,40,12.80
2014,10,22,14,41,12.80
2014,10,22,14,42,12.80
2014,10,22,14,43,12.80
2014,10,22,14,44,12.90
2014,10,22,14,45,12.90
2014,10,22,14,46,12.90
2014,10,22,14,47,12.90
2014,10,22,14,48,12.90
2014,10,22,14,49,12.90
2014,10,22,14,50,12.90
2014,10,22,14,51,12.90
2014,10,22,14,52,12.90
2014,10,22,14,53,12.90
2014,10,22,14,54,12.90
2014,10,22,14,55,12.90
2014,10,22,14,56,13.00
2014,10,22,14,57,13.00
2014,10,22,14,58,13.00
2014,10,22,14,59,13.00
2014,10,22,15,00,13.00
2014,10,22,15,01,13.00
2014,10,22,15,02,12.90
2014,10,22,15,03,12.90
2014,10,22,15,04,12.90
2014,10,22,15,05,12.90
2014,10,22,15,06,12.90
2014,10,22,15,07,12.90
2014,10,22,15,08,12.90
2014,10,22,15,09,13.00
2014,10,22,15,10,13.00
2014,10,22,15,11,13.00
2014,10,22,15,12,13.00
2014,10,22,15,13,13.10
2014,10,22,15,14,13.10
2014,10,22,15,15,13.10
2014,10,22,15,16,13.10
2014,10,22,15,17,13.10
2014,10,22,15,18,13.10
2014,10,22,15,19,13.10
2014,10,22,15,20,13.10
2014,10,22,15,21,13.10
2014,10,22,15,22,13.10
2014,10,22,15,23,13.10
2014,10,22,15,24,13.10
2014,10,22,15,25,13.10
2014,10,22,15,26,13.10
2014,10,22,15,27,13.10
2014,10,22,15,28,13.10
2014,10,22,15,29,13.10
2014,10,22,15,30,13.10
2014,10,22,15,31,13.10
2014,10,22,15,32,13.10
2014,10,22,15,33,13.10
2014,10,22,15,34,13.10
2014,10,22,15,35,13.10
2014,10,22,15,36,13.10
2014,10,22,15,37,13.10
2014,10,22,15,38,13.10
2014,10,22,15,39,13.00
2014,10,22,15,40,13.00
2014,10,22,15,41,13.00
2014,10,22,15,42,13.00
2014,10,22,15,43,13.00
2014,10,22,15,44,13.00
2014,10,22,15,45,13.00
2014,10,22,15,46,13.00
2014,10,22,15,47,13.00
2014,10,22,15,48,13.00
2014,10,22,15,49,13.00
2014,10,22,15,50,13.00
2014,10,22,15,51,13.00
2014,10,22,15,52,13.00
2014,10,22,15,53,12.90
2014,10,22,15,54,12.90
2014,10,22,15,55,12.90
2014,10,22,15,56,12.90
2014,10,22,15,57,12.90
2014,10,22,15,58,12.80
2014,10,22,15,59,12.80
2014,10,22,16,00,12.80
2014,10,22,16,01,12.80
2014,10,22,16,02,12.80
2014,10,22,16,03,12.80
2014,10,22,16,04,12.80
2014,10,22,16,05,12.80
2014,10,22,16,06,12.70
2014,10,22,16,07,12.70
2014,10,22,16,08,12.60
2014,10,22,16,09,12.60
2014,10,22,16,10,12.60
2014,10,22,16,11,12.60
2014,10,22,16,12,12.60
2014,10,22,16,13,12.50
2014,10,22,16,14,12.50
2014,10,22,16,15,12.50
2014,10,22,16,16,12.50
2014,10,22,16,17,12.40
2014,10,22,16,18,12.40
2014,10,22,16,19,12.40
2014,10,22,16,20,12.40
2014,10,22,16,21,12.40
2014,10,22,16,22,12.40
2014,10,22,16,23,12.40
2014,10,22,16,24,12.40
2014,10,22,16,25,12.40
2014,10,22,16,26,12.40
2014,10,22,16,27,12.40
2014,10,22,16,28,12.40
2014,10,22,16,29,12.40
2014,10,22,16,30,12.40
2014,10,22,16,31,12.40
2014,10,22,16,32,12.50
2014,10,22,16,33,12.50
2014,10,22,16,34,12.50
2014,10,22,16,35,12.50
2014,10,22,16,36,12.50
2014,10,22,16,37,12.60
2014,10,22,16,38,12.60
2014,10,22,16,39,12.60
2014,10,22,16,40,12.60
2014,10,22,16,41,12.60
2014,10,22,16,42,12.60
2014,10,22,16,43,12.60
2014,10,22,16,44,12.60
2014,10,22,16,45,12.60
2014,10,22,16,46,12.70
2014,10,22,16,47,12.70
2014,10,22,16,48,12.70
2014,10,22,16,49,12.70
2014,10,22,16,50,12.70
2014,10,22,16,51,12.70
2014,10,22,16,52,12.70
2014,10,22,16,53,12.70
2014,10,22,16,54,12.70
2014,10,22,16,55,12.70
2014,10,22,16,56,12.70
2014,10,22,16,57,12.70
2014,10,22,16,58,12.70
2014,10,22,16,59,12.70
2014,10,22,17,00,12.70
2014,10,22,17,01,12.70
2014,10,22,17,02,12.70
2014,10,22,17,03,12.70
2014,10,22,17,04,12.70
2014,10,22,17,05,12.70
2014,10,22,17,06,12.70
2014,10,22,17,07,12.70
2014,10,22,17,08,12.70
2014,10,22,17,09,12.70
2014,10,22,17,10,12.70
2014,10,22,17,11,12.70
2014,10,22,17,12,12.70
2014,10,22,17,13,12.60
2014,10,22,17,14,12.60
2014,10,22,17,15,12.60
2014,10,22,17,16,12.60
2014,10,22,17,17,12.60
2014,10,22,17,18,12.60
2014,10,22,17,19,12.60